Wind_Speed
42 42 42 40 39 40 40 41 42 40 40 39 40 40 38 37 36 36 36 37 39 41 42 43 45 47 48 49 51 51 52 51 50 51 53 53 52 51 50 50 51 51 51 52
43 43 44 43 42 43 43 43 44 44 44 45 45 42 42 42 42 42 42 44 45 47 48 49 50 51 51 51 51 49 50 50 51 53 53 52 50 48 49 50 50 50 51 52
42 44 43 45 46 45 45 46 48 49 50 49 49 49 49 49 49 49 49 50 51 52 51 51 51 51 50 49 48 48 50 52 52 52 51 49 47 48 48 49 49 50 51 53
41 42 43 45 44 42 43 46 48 50 51 52 53 52 52 53 53 53 52 52 51 49 48 48 49 48 48 47 47 49 51 53 53 51 48 46 46 47 47 48 49 50 52 53
38 39 41 43 41 40 41 43 44 46 48 49 49 50 51 50 50 49 48 47 45 44 44 45 45 44 44 45 48 51 54 54 50 46 44 44 45 45 46 47 49 51 51 51
35 36 38 41 39 39 39 41 41 41 43 44 44 45 47 46 46 45 44 43 42 41 40 41 41 41 43 46 50 53 52 48 43 42 42 42 43 44 46 47 49 49 49 49
33 34 37 38 37 37 36 37 37 37 37 38 40 41 42 42 42 42 41 39 38 37 36 37 38 41 45 49 51 49 43 40 39 39 40 41 42 44 45 47 47 48 47 44
29 30 33 34 34 34 34 33 32 32 32 32 33 34 35 36 36 35 34 34 33 32 33 34 38 43 47 46 43 39 36 36 36 37 39 40 42 43 44 45 46 44 42 38
27 29 31 31 32 32 31 29 28 28 28 28 28 28 28 29 29 29 28 28 28 29 30 35 40 43 41 37 33 32 33 34 35 37 39 41 42 43 44 43 41 38 35 33
26 28 30 30 30 30 28 27 25 24 23 24 24 23 23 24 24 24 24 24 26 28 31 36 36 33 30 29 29 29 31 33 35 38 40 41 42 42 41 38 34 32 30 29
25 26 26 27 26 24 23 21 19 18 18 18 18 18 18 18 18 19 21 23 25 28 29 27 24 22 23 24 25 28 31 34 37 39 40 41 40 38 34 30 27 26 25 25
18 19 19 19 18 16 14 12 12 11 11 12 12 12 12 13 14 16 18 19 19 18 17 16 17 18 20 23 26 30 33 35 38 39 40 38 34 30 26 23 22 22 22 21
12 12 12 11 10 8 7 6 5 5 5 5 6 7 8 9 10 10 9 8 8 9 11 12 14 17 21 24 27 30 33 36 38 37 35 31 27 22 20 19 20 20 19 16
5 5 5 6 7 6 5 5 5 5 5 4 3 4 5 5 5 3 3 5 6 7 9 12 15 19 22 25 28 32 34 35 34 31 28 24 20 18 18 19 19 18 16 13
2 1 2 4 6 7 7 8 8 8 7 6 5 4 3 1 1 2 3 4 5 8 11 14 17 20 23 27 30 31 32 30 28 25 21 18 17 17 17 18 18 16 14 12
2 1 3 5 7 8 9 9 9 9 8 7 6 5 3 3 3 4 5 6 8 10 13 16 19 22 26 28 29 29 27 25 23 20 18 18 17 17 17 17 16 15 13 11
2 2 4 6 8 9 9 10 10 9 8 7 6 5 5 6 7 7 8 9 11 13 16 19 22 24 26 26 26 25 23 21 20 18 18 18 18 17 16 15 14 13 11 10
3 4 5 6 7 8 9 10 9 9 8 7 6 7 8 9 10 10 11 12 13 16 18 21 23 24 25 24 24 23 21 20 19 18 18 18 18 17 16 14 13 12 10 10
6 5 5 6 8 9 9 9 9 9 8 8 9 10 11 11 11 12 12 14 16 18 20 21 23 24 24 24 24 23 21 20 19 19 18 18 18 18 16 14 13 12 11 11
7 6 6 7 7 8 9 9 9 9 9 10 11 12 12 12 12 13 14 15 17 19 20 22 23 24 25 25 25 24 23 22 20 20 19 19 18 18 17 15 14 14 13 12
9 8 7 7 8 8 9 9 9 10 11 12 13 14 13 12 13 14 14 16 18 19 21 22 25 27 28 28 28 27 26 25 23 22 21 20 19 19 18 17 16 15 15 14
11 10 8 8 8 9 9 10 10 11 12 14 14 14 13 13 13 14 15 16 18 19 21 24 28 30 31 31 31 31 30 29 27 26 25 24 22 21 20 19 19 18 17 17
13 12 11 10 9 10 10 11 11 12 14 14 15 14 13 13 13 14 15 16 18 20 23 26 30 32 33 34 34 34 33 33 32 31 30 29 27 25 24 22 21 20 20 19
16 14 13 12 11 11 11 12 13 14 15 15 16 14 13 13 14 14 15 16 18 20 23 27 30 33 35 36 36 35 36 36 36 36 35 34 33 31 29 27 25 23 22 21
17 16 14 13 13 12 12 13 14 15 16 17 17 15 14 14 14 14 15 16 18 20 23 27 30 33 36 37 37 37 37 37 38 38 39 39 38 37 35 33 30 28 25 24
18 17 16 15 15 14 14 15 15 16 18 19 19 17 15 14 14 14 14 15 17 19 23 26 29 32 35 37 38 39 39 39 39 39 40 41 41 41 41 40 38 35 32 30
18 18 17 17 17 16 16 16 17 18 19 21 21 19 17 15 15 14 14 15 16 18 21 24 26 29 32 34 36 38 39 40 41 41 41 42 42 43 43 43 43 42 40 38
Wind_Direction
253 253 256 258 258 258 258 258 261 264 267 271 270 272 275 278 279 281 282 284 285 285 286 287 289 290 291 292 293 295 294 295 297 298 298 298 298 300 302 303 303 303 303 303
256 258 259 260 261 261 262 264 266 267 269 269 270 274 276 278 279 281 282 283 285 286 287 288 289 289 290 291 293 292 291 292 295 296 295 296 297 300 302 303 304 305 305 306
256 258 260 262 261 262 265 266 267 268 269 272 275 275 276 277 278 279 281 282 284 285 285 286 286 287 288 289 290 288 288 289 290 291 293 296 299 301 303 305 306 307 308 309
257 259 260 261 264 265 265 264 266 267 269 271 272 273 274 275 276 278 279 280 281 281 281 281 282 284 286 285 285 284 286 286 288 291 294 298 301 303 305 307 309 310 311 311
258 261 264 264 266 267 267 266 266 267 269 270 272 273 273 274 275 275 276 277 277 277 278 278 280 282 281 280 280 281 283 284 287 293 298 301 303 306 308 310 311 312 313 313
260 262 266 267 268 269 270 270 270 270 270 270 271 271 272 273 273 274 274 274 275 276 276 277 278 278 276 275 276 277 279 284 291 298 301 304 307 309 311 312 313 313 314 316
261 263 266 269 271 272 272 273 274 272 271 271 270 269 270 270 270 271 272 273 274 274 274 274 273 271 270 270 271 275 283 293 299 303 306 308 310 311 312 313 314 315 316 317
260 263 267 270 271 272 273 274 275 275 274 272 270 269 269 269 269 270 271 271 271 271 270 268 265 262 263 267 274 284 295 301 305 307 309 311 312 313 314 315 316 318 319 320
264 267 270 271 272 273 274 274 273 272 271 271 270 269 269 269 270 270 269 268 267 266 263 261 260 261 266 276 290 299 304 307 309 311 313 314 314 315 316 317 318 320 321 323
271 272 273 274 275 275 275 274 272 270 268 267 267 268 267 268 267 264 263 262 261 260 258 257 260 269 283 295 303 306 310 312 314 315 315 316 316 317 318 319 320 322 324 326
276 276 277 277 277 277 276 273 271 268 266 264 264 265 264 260 259 257 257 254 254 255 258 266 277 292 301 307 311 314 316 317 317 317 317 318 319 320 321 322 323 325 326 328
278 276 275 276 277 277 274 269 265 262 261 256 251 251 254 252 252 254 254 254 256 262 276 293 304 311 316 319 321 321 320 320 320 320 320 322 323 325 327 328 330 330 330 333
278 271 269 266 265 262 257 246 234 231 226 220 230 242 248 250 253 250 254 265 283 299 307 316 323 326 327 327 326 325 324 324 324 325 326 328 330 333 336 337 337 336 338 342
292 271 249 232 223 209 193 171 159 153 155 160 184 205 218 230 237 263 305 319 323 329 335 338 338 336 334 333 331 330 330 329 330 332 335 338 341 344 345 344 344 347 351 356
20 26 196 193 183 171 158 145 134 127 122 121 127 135 137 131 36 10 3 2 3 360 356 351 347 344 342 340 338 337 336 338 341 344 348 352 353 351 350 350 354 358 4 11
58 93 163 166 158 147 140 135 132 130 125 121 117 107 97 78 69 72 64 47 26 14 6 0 355 352 349 346 344 343 346 350 355 359 2 2 360 358 358 360 3 8 15 23
117 125 140 143 138 138 138 134 130 128 124 119 110 100 94 95 96 87 67 45 31 22 14 7 2 358 354 352 352 354 359 3 6 8 9 7 6 6 7 10 14 19 28 38
160 148 138 133 131 137 135 132 131 128 124 117 107 105 106 103 95 79 60 46 35 26 19 13 8 3 1 2 4 6 9 11 13 14 12 11 12 13 16 19 24 32 43 52
177 163 149 140 135 135 136 136 135 130 122 117 114 114 111 102 89 73 60 49 38 29 23 19 14 12 12 14 15 16 17 18 18 17 16 17 18 20 22 28 36 43 51 62
189 181 171 157 146 143 143 142 137 130 125 123 122 120 113 101 87 73 62 50 40 34 30 26 24 24 24 24 23 24 24 24 24 23 23 24 25 28 32 38 46 50 59 71
198 191 181 168 154 148 146 144 139 134 132 131 129 125 116 103 88 76 64 53 46 42 38 35 34 34 33 33 32 33 32 32 32 32 32 33 34 37 41 47 52 58 66 76
203 196 188 174 163 156 152 148 144 140 138 137 135 130 120 106 93 80 66 57 52 49 46 45 44 42 40 40 40 40 40 40 41 42 42 42 44 45 49 53 59 64 70 76
207 203 197 185 175 166 158 153 150 146 144 143 141 136 125 112 99 84 70 63 59 57 55 54 52 49 47 47 47 47 47 47 48 49 49 49 50 52 54 57 62 67 71 75
207 205 201 193 183 173 167 161 157 154 152 151 149 142 131 119 104 90 77 70 67 65 64 62 59 56 54 53 52 52 52 52 52 53 54 54 55 55 57 60 63 67 70 73
207 205 203 198 191 182 174 169 165 163 160 159 155 149 139 126 112 97 84 78 75 73 72 69 66 62 60 59 57 57 56 56 56 56 57 57 58 58 59 61 63 65 68 70
206 207 205 200 195 187 180 176 173 170 167 165 162 156 146 134 120 105 93 86 83 81 78 75 72 68 66 64 62 62 61 60 60 60 60 60 60 60 61 61 63 64 66 68
203 204 202 198 195 191 186 182 179 175 172 169 166 160 152 141 129 116 104 95 91 88 84 80 77 73 70 68 67 66 65 64 63 63 62 62 62 62 62 62 63 64 65 66
Height
5740 5743 5745 5746 5747 5748 5749 5751 5751 5752 5752 5752 5750 5749 5751 5751 5750 5750 5749 5748 5746 5743 5741 5739 5736 5733 5729 5725 5721 5717 5713 5708 5703 5698 5693 5687 5681 5675 5669 5662 5655 5649 5641 5633
5730 5731 5733 5735 5737 5738 5739 5740 5740 5740 5741 5739 5739 5741 5741 5740 5740 5739 5738 5737 5734 5732 5730 5727 5724 5721 5717 5713 5709 5705 5700 5695 5691 5686 5681 5675 5669 5663 5657 5650 5643 5636 5628 5620
5719 5720 5722 5724 5725 5726 5728 5729 5729 5728 5727 5727 5728 5728 5728 5728 5727 5726 5726 5724 5722 5720 5718 5715 5712 5709 5705 5702 5698 5693 5688 5684 5679 5674 5669 5663 5657 5651 5645 5638 5631 5623 5615 5606
5709 5710 5712 5712 5713 5716 5717 5716 5716 5715 5715 5715 5715 5715 5715 5714 5714 5713 5712 5711 5710 5708 5706 5703 5700 5697 5694 5691 5687 5682 5678 5673 5668 5662 5657 5652 5646 5640 5633 5626 5618 5610 5602 5593
5700 5700 5701 5700 5702 5703 5704 5704 5704 5703 5702 5702 5702 5702 5700 5700 5699 5699 5699 5698 5697 5696 5694 5692 5689 5687 5684 5681 5677 5672 5668 5662 5656 5651 5646 5640 5634 5628 5621 5613 5605 5598 5590 5582
5690 5690 5691 5690 5692 5692 5693 5692 5692 5691 5690 5690 5690 5689 5688 5687 5686 5686 5685 5685 5685 5684 5683 5681 5679 5677 5674 5670 5667 5662 5657 5651 5646 5641 5635 5629 5623 5616 5609 5601 5594 5587 5579 5571
5680 5680 5680 5680 5681 5681 5683 5681 5680 5679 5678 5678 5677 5677 5676 5675 5674 5674 5674 5674 5674 5673 5672 5671 5669 5667 5664 5660 5656 5651 5645 5640 5636 5630 5624 5618 5612 5605 5598 5591 5584 5577 5570 5562
5672 5672 5672 5671 5670 5670 5670 5669 5668 5667 5666 5666 5666 5665 5664 5664 5663 5663 5663 5664 5663 5663 5662 5662 5660 5657 5653 5649 5645 5640 5635 5631 5626 5620 5614 5608 5601 5594 5587 5580 5573 5566 5560 5553
5664 5664 5662 5661 5660 5659 5659 5659 5658 5658 5657 5656 5656 5655 5655 5655 5655 5655 5655 5655 5655 5655 5655 5654 5651 5648 5645 5640 5636 5632 5627 5622 5617 5611 5605 5598 5591 5585 5578 5571 5564 5558 5551 5545
5654 5653 5652 5651 5650 5650 5650 5650 5650 5649 5649 5648 5648 5648 5648 5648 5648 5648 5648 5648 5648 5648 5647 5646 5643 5640 5636 5633 5629 5625 5620 5614 5608 5602 5595 5589 5582 5575 5569 5562 5556 5551 5545 5539
5646 5645 5643 5642 5642 5641 5641 5641 5641 5641 5641 5641 5642 5642 5643 5643 5643 5643 5643 5642 5643 5643 5641 5639 5636 5634 5631 5627 5623 5618 5613 5607 5600 5594 5587 5580 5573 5566 5560 5555 5550 5545 5540 5535
5639 5638 5636 5635 5635 5635 5635 5635 5636 5636 5636 5636 5637 5638 5638 5639 5639 5639 5639 5639 5638 5637 5636 5635 5633 5630 5626 5622 5617 5612 5606 5600 5593 5586 5578 5571 5565 5560 5554 5550 5545 5541 5536 5531
5633 5631 5631 5631 5631 5631 5632 5632 5632 5633 5633 5634 5635 5636 5636 5637 5638 5638 5637 5637 5636 5635 5634 5632 5629 5626 5622 5618 5613 5607 5600 5593 5585 5578 5571 5565 5559 5554 5550 5546 5542 5537 5533 5528
5629 5628 5628 5628 5629 5630 5631 5631 5631 5632 5633 5634 5635 5636 5637 5637 5637 5637 5637 5636 5635 5634 5632 5630 5627 5623 5619 5614 5608 5601 5594 5587 5579 5572 5566 5560 5556 5552 5548 5544 5539 5535 5531 5527
5628 5628 5628 5628 5629 5630 5631 5632 5632 5633 5634 5635 5636 5637 5638 5638 5638 5637 5637 5636 5635 5634 5632 5629 5626 5622 5616 5610 5604 5597 5589 5582 5575 5569 5563 5559 5554 5550 5546 5542 5537 5533 5530 5527
5629 5629 5629 5629 5630 5631 5632 5633 5634 5635 5636 5637 5638 5639 5639 5639 5638 5638 5637 5637 5636 5634 5632 5628 5624 5619 5614 5607 5601 5593 5586 5579 5573 5568 5563 5558 5554 5550 5545 5541 5537 5533 5530 5528
5631 5631 5631 5631 5632 5633 5634 5635 5636 5637 5638 5639 5640 5640 5640 5640 5640 5640 5639 5638 5637 5635 5632 5628 5624 5618 5612 5605 5598 5591 5584 5578 5573 5568 5563 5558 5554 5549 5545 5541 5538 5534 5532 5529
5632 5632 5633 5633 5634 5635 5636 5637 5639 5640 5640 5641 5641 5641 5642 5642 5642 5642 5641 5640 5639 5636 5633 5628 5623 5618 5612 5604 5597 5590 5584 5578 5573 5568 5563 5559 5554 5550 5546 5542 5538 5536 5533 5531
5633 5634 5634 5635 5636 5637 5638 5639 5640 5641 5642 5642 5643 5643 5644 5644 5644 5644 5644 5643 5640 5638 5634 5629 5624 5619 5612 5604 5598 5591 5585 5579 5574 5569 5564 5560 5555 5551 5547 5543 5540 5537 5535 5534
5633 5634 5635 5637 5638 5639 5640 5641 5641 5642 5643 5643 5644 5645 5646 5647 5647 5647 5646 5645 5643 5640 5636 5632 5626 5620 5613 5606 5599 5593 5587 5581 5576 5571 5566 5562 5557 5553 5549 5545 5543 5540 5538 5536
5632 5634 5636 5637 5638 5639 5640 5641 5642 5643 5644 5645 5646 5648 5649 5650 5650 5650 5649 5648 5646 5642 5639 5634 5629 5622 5615 5609 5602 5596 5590 5584 5579 5574 5569 5564 5560 5556 5552 5549 5546 5543 5541 5540
5631 5634 5636 5637 5639 5640 5641 5642 5643 5644 5645 5647 5648 5650 5652 5653 5653 5653 5653 5651 5649 5646 5642 5638 5632 5625 5620 5613 5607 5600 5594 5589 5583 5578 5573 5568 5564 5560 5556 5553 5550 5548 5546 5544
5630 5633 5635 5637 5639 5640 5641 5643 5644 5645 5647 5649 5651 5653 5655 5656 5656 5656 5656 5654 5652 5650 5646 5642 5636 5631 5625 5619 5613 5607 5601 5596 5590 5585 5579 5574 5570 5565 5562 5558 5555 5553 5551 5550
5629 5631 5634 5636 5638 5640 5641 5643 5645 5646 5648 5651 5653 5655 5657 5658 5659 5659 5659 5658 5656 5654 5651 5646 5642 5637 5632 5626 5620 5615 5610 5604 5599 5593 5588 5582 5577 5573 5568 5565 5562 5559 5557 5556
5626 5629 5632 5635 5637 5639 5641 5643 5645 5647 5649 5652 5655 5657 5659 5661 5661 5662 5662 5661 5660 5658 5655 5652 5648 5645 5639 5634 5629 5624 5619 5614 5608 5603 5598 5592 5587 5582 5577 5573 5570 5567 5564 5562
5624 5627 5630 5633 5636 5638 5640 5643 5645 5647 5650 5653 5656 5659 5661 5663 5664 5664 5665 5665 5664 5663 5660 5657 5655 5651 5647 5643 5638 5634 5629 5624 5619 5614 5609 5603 5598 5593 5588 5584 5580 5576 5573 5570
5622 5625 5628 5631 5634 5636 5639 5642 5644 5647 5650 5653 5657 5660 5662 5664 5666 5667 5668 5668 5668 5667 5665 5663 5660 5658 5655 5651 5648 5644 5639 5634 5630 5625 5620 5615 5610 5605 5601 5596 5592 5587 5583 5580